Location: Famechon
(49.7599°N, 2.0615°E)
Time: 13:35:55
(UTC+00:00)

USA 215 - Pass Details

Date: 03 February 2023
Orbit: 1100 x 1107 km, 123.0° (Epoch: 18 March)

Event Time Altitude Azimuth Distance (km) Brightness Sun altitude
Rises 18:15:31 0° 149° (SSE) 3,910 5.9 -14.1°
Reaches altitude 10° 18:18:09 10° 156° (SSE) 2,954 5.4 -14.5°
Maximum altitude 18:24:17 42° 226° (SW) 1,522 4.4 -15.5°
Drops below altitude 10° 18:30:26 10° 296° (WNW) 2,963 6.4 -16.4°
Sets 18:33:05 0° 303° (WNW) 3,924 7.0 -16.9°
